TimeCDT,TemperatureF,Dew PointF,Humidity,Sea Level PressureIn,VisibilityMPH,Wind Direction,Wind SpeedMPH,Gust SpeedMPH,PrecipitationIn,Events,Conditions,WindDirDegrees,DateUTC
12:10 AM,66.2,55.4,68,29.87,10.0,NNW,6.9,-,N/A,,Overcast,330,2013-07-23 05:10:00
12:30 AM,64.4,55.4,73,29.86,10.0,NNW,5.8,-,N/A,,Mostly Cloudy,330,2013-07-23 05:30:00
12:49 AM,64.4,55.4,73,29.87,10.0,NNW,5.8,-,N/A,,Scattered Clouds,330,2013-07-23 05:49:00
1:10 AM,64.4,55.4,73,29.86,10.0,North,8.1,-,N/A,,Clear,350,2013-07-23 06:10:00
1:30 AM,64.4,55.4,73,29.86,10.0,NNW,5.8,-,N/A,,Clear,340,2013-07-23 06:30:00
1:50 AM,62.6,55.4,77,29.87,10.0,NNW,5.8,-,N/A,,Clear,330,2013-07-23 06:50:00
2:10 AM,60.8,55.4,82,29.87,10.0,NW,6.9,-,N/A,,Clear,320,2013-07-23 07:10:00
2:30 AM,60.8,55.4,82,29.87,10.0,NW,5.8,-,N/A,,Clear,320,2013-07-23 07:30:00
2:50 AM,59.0,55.4,88,29.88,10.0,NW,5.8,-,N/A,,Clear,310,2013-07-23 07:50:00
3:10 AM,60.8,55.4,82,29.88,10.0,NNW,3.5,-,N/A,,Clear,330,2013-07-23 08:10:00
3:30 AM,57.2,55.4,94,29.88,10.0,NW,3.5,-,N/A,,Clear,310,2013-07-23 08:30:00
3:50 AM,57.2,55.4,94,29.89,10.0,NNW,4.6,-,N/A,,Clear,330,2013-07-23 08:50:00
4:10 AM,57.2,53.6,88,29.90,10.0,Calm,Calm,-,N/A,,Clear,0,2013-07-23 09:10:00
4:29 AM,57.2,55.4,94,29.90,10.0,Calm,Calm,-,N/A,,Clear,0,2013-07-23 09:29:00
4:50 AM,57.2,55.4,94,29.91,10.0,Calm,Calm,-,N/A,,Clear,0,2013-07-23 09:50:00
5:10 AM,57.2,55.4,94,29.92,10.0,West,3.5,-,N/A,,Clear,270,2013-07-23 10:10:00
5:29 AM,57.2,55.4,94,29.91,10.0,WNW,4.6,-,N/A,,Clear,290,2013-07-23 10:29:00
5:50 AM,55.4,53.6,94,29.93,10.0,WNW,4.6,-,N/A,,Clear,300,2013-07-23 10:50:00
6:10 AM,57.2,55.4,94,29.94,10.0,West,4.6,-,N/A,,Clear,270,2013-07-23 11:10:00
6:29 AM,57.2,55.4,94,29.93,10.0,WNW,3.5,-,N/A,,Clear,300,2013-07-23 11:29:00
6:50 AM,59.0,55.4,88,29.94,10.0,WNW,3.5,-,N/A,,Clear,300,2013-07-23 11:50:00
7:10 AM,60.8,55.4,82,29.95,10.0,NNW,4.6,-,N/A,,Clear,330,2013-07-23 12:10:00
7:29 AM,62.6,55.4,77,29.95,10.0,North,10.4,-,N/A,,Clear,10,2013-07-23 12:29:00
7:50 AM,62.6,53.6,72,29.96,10.0,North,8.1,-,N/A,,Clear,10,2013-07-23 12:50:00
8:10 AM,62.6,53.6,72,29.96,10.0,North,8.1,-,N/A,,Clear,350,2013-07-23 13:10:00
8:29 AM,64.4,53.6,68,29.96,10.0,North,9.2,-,N/A,,Clear,360,2013-07-23 13:29:00
8:50 AM,64.4,53.6,68,29.96,10.0,North,10.4,-,N/A,,Clear,360,2013-07-23 13:50:00
9:10 AM,64.4,53.6,68,29.95,10.0,North,9.2,-,N/A,,Clear,360,2013-07-23 14:10:00
9:29 AM,64.4,53.6,68,29.97,10.0,NNE,9.2,-,N/A,,Clear,30,2013-07-23 14:29:00
9:50 AM,66.2,53.6,64,29.98,10.0,North,8.1,-,N/A,,Clear,350,2013-07-23 14:50:00
10:10 AM,66.2,53.6,64,29.99,10.0,NNW,11.5,-,N/A,,Clear,330,2013-07-23 15:10:00
10:29 AM,66.2,53.6,64,30.00,10.0,North,10.4,-,N/A,,Clear,360,2013-07-23 15:29:00
10:50 AM,68.0,53.6,60,29.99,10.0,North,9.2,-,N/A,,Clear,10,2013-07-23 15:50:00
11:10 AM,69.8,53.6,56,30.00,10.0,North,6.9,21.9,N/A,,Clear,350,2013-07-23 16:10:00
11:30 AM,69.8,53.6,56,30.00,10.0,North,8.1,-,N/A,,Clear,350,2013-07-23 16:30:00
11:50 AM,69.8,53.6,56,30.00,10.0,North,13.8,17.3,N/A,,Clear,10,2013-07-23 16:50:00
12:09 PM,69.8,53.6,56,30.00,10.0,NNW,5.8,16.1,N/A,,Clear,340,2013-07-23 17:09:00
12:30 PM,69.8,51.8,53,30.00,10.0,North,10.4,16.1,N/A,,Clear,360,2013-07-23 17:30:00
12:50 PM,69.8,51.8,53,30.00,10.0,North,9.2,-,N/A,,Clear,350,2013-07-23 17:50:00
1:09 PM,69.8,53.6,56,30.00,10.0,NE,6.9,-,N/A,,Clear,40,2013-07-23 18:09:00
1:30 PM,71.6,51.8,50,29.99,10.0,NE,9.2,-,N/A,,Clear,40,2013-07-23 18:30:00
1:50 PM,71.6,53.6,53,29.99,10.0,NNE,10.4,16.1,N/A,,Clear,30,2013-07-23 18:50:00
2:09 PM,71.6,51.8,50,30.00,10.0,NE,8.1,-,N/A,,Clear,50,2013-07-23 19:09:00
2:30 PM,71.6,53.6,53,30.00,10.0,ENE,8.1,-,N/A,,Clear,60,2013-07-23 19:30:00
2:49 PM,71.6,53.6,53,29.99,10.0,North,5.8,-,N/A,,Clear,350,2013-07-23 19:49:00
3:10 PM,71.6,53.6,53,29.99,10.0,ENE,8.1,-,N/A,,Clear,70,2013-07-23 20:10:00
3:30 PM,71.6,53.6,53,29.99,10.0,North,3.5,-,N/A,,Clear,360,2013-07-23 20:30:00
3:49 PM,71.6,53.6,53,29.99,10.0,ENE,6.9,-,N/A,,Clear,60,2013-07-23 20:49:00
4:10 PM,71.6,53.6,53,29.99,10.0,NE,8.1,-,N/A,,Clear,50,2013-07-23 21:10:00
4:30 PM,71.6,53.6,53,29.99,10.0,NE,6.9,-,N/A,,Clear,40,2013-07-23 21:30:00
4:49 PM,73.4,53.6,50,29.98,10.0,North,8.1,-,N/A,,Clear,360,2013-07-23 21:49:00
5:10 PM,71.6,53.6,53,29.98,10.0,NE,9.2,-,N/A,,Clear,50,2013-07-23 22:10:00
5:30 PM,71.6,53.6,53,29.98,10.0,NNE,8.1,-,N/A,,Clear,30,2013-07-23 22:30:00
5:49 PM,71.6,53.6,53,29.98,10.0,NE,6.9,-,N/A,,Clear,50,2013-07-23 22:49:00
6:10 PM,71.6,51.8,50,29.98,10.0,NNE,8.1,-,N/A,,Clear,30,2013-07-23 23:10:00
6:29 PM,71.6,51.8,50,29.98,10.0,NNE,5.8,-,N/A,,Clear,30,2013-07-23 23:29:00
6:50 PM,71.6,51.8,50,29.99,10.0,NNE,8.1,-,N/A,,Clear,30,2013-07-23 23:50:00
7:10 PM,71.6,51.8,50,29.99,10.0,NE,8.1,-,N/A,,Clear,40,2013-07-24 00:10:00
7:29 PM,69.8,51.8,53,29.99,10.0,NE,5.8,-,N/A,,Clear,40,2013-07-24 00:29:00
7:50 PM,68.0,53.6,60,30.00,10.0,ENE,4.6,-,N/A,,Clear,60,2013-07-24 00:50:00
8:10 PM,66.2,53.6,64,30.00,10.0,Calm,Calm,-,N/A,,Clear,0,2013-07-24 01:10:00
8:29 PM,66.2,55.4,68,30.00,10.0,Calm,Calm,-,N/A,,Scattered Clouds,0,2013-07-24 01:29:00
8:50 PM,64.4,55.4,73,30.00,10.0,Calm,Calm,-,N/A,,Scattered Clouds,0,2013-07-24 01:50:00
9:10 PM,62.6,59.0,88,30.00,10.0,Calm,Calm,-,N/A,,Clear,0,2013-07-24 02:10:00
9:29 PM,62.6,57.2,82,30.01,10.0,NE,3.5,-,N/A,,Scattered Clouds,40,2013-07-24 02:29:00
9:50 PM,64.4,55.4,73,30.01,10.0,Calm,Calm,-,N/A,,Scattered Clouds,0,2013-07-24 02:50:00
10:10 PM,62.6,55.4,77,30.02,10.0,Calm,Calm,-,N/A,,Scattered Clouds,0,2013-07-24 03:10:00
10:29 PM,60.8,55.4,82,30.02,10.0,Calm,Calm,-,N/A,,Scattered Clouds,0,2013-07-24 03:29:00
10:50 PM,60.8,55.4,82,30.02,10.0,Calm,Calm,-,N/A,,Clear,0,2013-07-24 03:50:00
11:09 PM,59.0,55.4,88,30.02,7.0,Calm,Calm,-,N/A,,Clear,0,2013-07-24 04:09:00
11:30 PM,57.2,55.4,94,30.03,7.0,Calm,Calm,-,N/A,,Clear,0,2013-07-24 04:30:00
11:50 PM,55.4,55.4,100,30.03,10.0,Calm,Calm,-,N/A,,Clear,0,2013-07-24 04:50:00